ECMWFNIL_850_dewp_003.txt.gz
Dewpoint
4 3 3 3 2 3 4 3 3 4 3 3 5 5 6 5 1 1 1 -6 -7 -6 -8 -8 -9 -9 -8 -9 -5 -3 -7 -8 -8 -8 -7 -8 -9 -9 -10 -11 -12 -13
5 4 3 3 2 2 4 4 3 4 3 2 4 4 6 6 2 1 0 -5 -6 -5 -7 -6 -8 -9 -7 -9 -9 -7 -7 -8 -8 -8 -8 -8 -8 -9 -10 -10 -11 -12
5 5 4 3 2 2 4 4 4 4 3 3 4 4 6 6 3 1 -1 -4 -4 -5 -6 -5 -6 -7 -7 -8 -8 -6 -7 -8 -8 -8 -8 -8 -7 -8 -9 -9 -10 -11
4 5 5 4 3 1 3 5 5 4 4 3 3 4 5 6 3 1 -1 -3 -3 -4 -5 -5 -6 -6 -6 -8 -6 -6 -7 -7 -8 -8 -7 -8 -8 -8 -7 -8 -9 -9
0 3 4 5 4 3 3 4 5 4 4 4 4 3 5 5 3 2 -1 -2 -2 -4 -5 -4 -5 -5 -5 -6 -5 -6 -7 -7 -8 -7 -6 -7 -9 -8 -8 -8 -8 -8
2 2 2 4 4 5 5 5 4 4 4 5 5 4 5 5 4 3 1 -0 0 -1 -3 -4 -4 -4 -4 -5 -5 -5 -4 -3 -5 -7 -5 -6 -7 -7 -8 -7 -7 -7
5 4 4 5 4 4 6 6 5 4 3 4 5 5 5 5 4 4 3 2 2 2 -0 -3 -3 -4 -4 -4 -3 -3 -2 -1 -4 -6 -3 -2 -5 -8 -7 -8 -7 -6
6 3 5 7 5 3 5 6 6 4 3 3 4 4 5 5 5 5 4 3 3 4 3 2 -0 -2 -3 -3 -2 -2 -3 -2 -3 -4 -1 -1 -5 -7 -5 -6 -8 -6
7 5 5 5 3 2 2 4 5 4 5 4 4 4 5 5 5 5 5 4 3 4 5 5 4 2 -1 -2 -2 -2 -3 -2 -2 -3 -2 -2 -5 -5 -3 -4 -7 -7
8 7 7 7 6 4 1 1 2 4 4 4 4 5 5 4 4 4 5 5 5 5 5 5 4 3 1 -1 -1 -1 -1 -1 -1 -2 -2 -2 -3 -3 -3 -4 -7 -7
8 7 8 8 7 7 6 4 5 5 4 3 4 4 4 4 5 5 5 6 6 5 4 4 3 3 2 0 0 -1 -0 0 -0 -0 -0 -1 -1 -2 -4 -6 -7 -7
7 8 8 8 7 7 7 7 7 7 6 6 6 6 5 5 5 5 5 6 6 6 5 4 4 3 2 2 1 1 0 1 1 1 1 0 -1 -2 -4 -5 -7 -7
3 5 6 8 8 8 8 9 9 9 8 7 8 7 7 6 6 5 5 5 6 6 6 6 5 4 3 2 3 2 1 1 1 1 2 1 0 -1 -3 -5 -7 -8
-3 -2 1 3 3 3 4 5 6 7 8 8 7 7 7 8 7 6 5 6 6 6 6 6 6 5 4 3 3 3 2 2 2 2 2 1 0 -2 -4 -5 -7 -8
-3 -3 -2 -1 -2 -1 -1 -0 -1 0 3 5 6 5 6 7 7 7 6 6 6 6 6 7 6 5 4 3 4 4 3 3 3 2 2 1 -1 -2 -4 -5 -7 -8
-6 -5 -5 -5 -4 -4 -4 -3 -3 -4 -2 2 5 7 7 7 8 8 7 6 7 7 6 6 6 6 5 4 4 4 3 3 3 2 1 -0 -2 -3 -4 -5 -6 -8
-7 -8 -10 -11 -9 -7 -3 -2 -0 2 3 3 4 5 6 7 8 8 7 7 7 7 7 6 6 6 5 4 4 4 3 3 3 2 0 -1 -2 -3 -4 -5 -6 -7
-4 -6 -6 -6 -6 -2 2 3 3 4 5 5 5 3 3 5 7 7 7 8 7 7 6 6 6 6 5 5 4 4 3 3 2 0 -1 -2 -3 -4 -4 -5 -6 -6
-2 -2 -1 -1 -1 -0 2 4 4 5 5 5 6 3 -1 -0 3 4 6 8 7 7 6 5 5 5 5 5 4 4 3 2 1 -0 -1 -2 -3 -4 -5 -5 -6 -6
-1 -0 -1 -1 -1 -1 -0 2 4 5 5 4 5 4 1 1 2 4 7 8 7 7 6 6 5 5 5 5 4 3 2 2 1 -1 -2 -3 -4 -4 -5 -6 -7 -8
-0 -0 -1 -2 -2 -1 -1 1 3 4 5 4 4 5 5 5 4 4 5 6 7 6 6 6 5 5 5 5 4 3 2 2 0 -2 -2 -3 -4 -5 -6 -8 -8 -8
-0 -1 -1 -2 -2 -1 -0 0 2 4 5 5 4 4 4 5 5 4 3 4 6 6 6 6 5 5 5 4 4 3 3 1 -1 -2 -3 -4 -5 -5 -5 -6 -6 -6
-1 -1 -1 -1 -1 -0 0 1 2 4 5 5 5 5 5 4 4 4 4 5 6 6 6 5 5 5 4 4 3 3 2 -0 -2 -4 -4 -4 -4 -4 -4 -4 -4 -4
-1 -1 -1 -1 -1 -1 -0 1 2 3 4 4 4 4 4 4 4 4 4 5 6 6 5 5 5 4 4 3 3 3 1 -0 -3 -4 -4 -4 -3 -3 -3 -4 -4 -4
-1 -1 0 0 0 -0 -1 -0 1 3 4 4 4 4 4 4 4 4 4 4 5 5 4 4 4 4 3 3 2 1 0 -1 -3 -4 -5 -5 -5 -4 -4 -4 -4 -4
-2 -1 -0 1 1 1 0 0 1 2 3 4 3 3 3 3 4 4 4 5 4 3 3 3 3 3 2 1 0 -0 -1 -4 -8 -8 -6 -5 -5 -4 -5 -5 -5 -5

ECMWFNIL_850_dewp_006.txt.gz
Dewpoint
1 2 0 2 4 3 3 5 5 4 4 5 5 4 2 -2 -6 -7 -7 -7 -7 -8 -8 -9 -8 -9 -8 -4 -3 -7 -8 -8 -8 -8 -8 -8 -9 -10 -10 -12 -12 -12
-0 1 0 0 4 4 3 4 5 3 3 5 5 5 4 1 -3 -6 -6 -6 -7 -7 -7 -8 -8 -8 -9 -7 -7 -8 -8 -8 -9 -8 -9 -9 -9 -10 -11 -12 -12 -12
1 2 2 1 2 4 3 3 4 3 3 4 5 5 5 3 0 -4 -6 -6 -6 -6 -6 -7 -7 -7 -8 -7 -8 -8 -8 -9 -9 -9 -9 -9 -10 -11 -11 -11 -11 -11
3 3 3 3 2 3 3 4 4 4 4 3 4 5 5 4 2 -2 -5 -6 -6 -6 -6 -6 -6 -6 -7 -7 -7 -7 -8 -8 -8 -9 -9 -9 -9 -9 -9 -9 -9 -9
4 4 4 3 3 2 3 4 4 5 4 4 3 5 5 5 3 -1 -4 -6 -6 -6 -6 -5 -5 -6 -6 -6 -6 -7 -7 -7 -8 -8 -8 -8 -8 -8 -8 -8 -8 -8
5 5 5 4 4 3 3 3 4 4 5 4 4 4 5 5 4 1 -2 -4 -5 -5 -6 -5 -5 -5 -5 -6 -5 -6 -6 -6 -6 -7 -7 -8 -8 -8 -8 -7 -7 -6
6 6 6 6 5 4 3 4 4 4 4 4 4 4 5 5 5 5 3 1 0 -1 -4 -4 -5 -5 -5 -5 -5 -5 -5 -5 -5 -5 -5 -5 -5 -7 -7 -7 -8 -6
6 7 7 6 5 4 3 4 5 5 4 4 4 5 5 5 5 5 5 5 4 3 1 -0 -2 -4 -4 -4 -4 -4 -4 -4 -4 -4 -4 -3 -2 -5 -6 -6 -7 -6
7 7 7 6 5 5 5 4 4 4 4 4 4 5 4 5 5 6 5 6 6 6 5 4 2 0 -1 -3 -3 -3 -3 -3 -4 -4 -4 -3 -2 -4 -3 -2 -4 -7
8 8 8 7 6 6 6 6 5 6 6 5 4 4 4 4 5 5 5 5 6 6 6 6 5 4 2 1 -1 -2 -2 -2 -3 -3 -3 -3 -3 -3 -2 -1 -2 -5
8 8 8 7 7 6 6 6 6 7 7 6 4 4 4 4 5 5 5 5 5 6 6 6 6 5 4 3 2 1 -0 -1 -1 -1 -2 -2 -2 -2 -2 -1 -2 -4
7 8 8 8 8 7 7 7 6 5 6 6 6 6 4 3 4 4 4 4 5 5 6 6 6 6 6 5 4 3 2 1 1 1 0 0 0 -0 -0 -1 -2 -4
4 6 7 7 7 7 7 7 7 5 4 4 5 5 5 5 5 5 5 5 5 5 6 6 6 6 6 6 5 4 4 3 2 2 2 1 1 1 1 -0 -1 -2
1 2 3 3 3 3 4 5 5 4 4 4 4 4 5 6 6 5 5 5 5 5 5 6 6 6 6 6 6 5 5 4 3 3 2 2 2 2 1 1 0 -1
-2 -2 -2 -2 -1 -1 -0 0 0 -0 0 2 2 3 5 6 6 6 6 6 6 5 5 5 5 5 6 5 6 6 5 4 4 4 3 2 2 2 1 1 1 -1
-4 -4 -4 -4 -1 1 0 -1 -2 -1 -1 0 1 3 5 5 6 7 7 7 7 7 6 6 5 5 5 5 6 6 5 5 5 4 3 3 2 2 2 1 0 -1
-7 -8 -8 -7 -4 -0 1 2 2 3 4 5 6 4 2 1 2 4 5 6 6 6 7 7 6 5 5 5 6 6 6 5 5 4 4 3 3 2 1 0 -1 -2
-7 -7 -10 -13 -11 -9 -5 -3 -2 0 2 4 6 4 0 -2 -3 -3 -0 3 4 5 7 8 7 6 6 5 5 6 6 5 5 4 4 3 2 1 0 -1 -1 -2
-6 -4 -6 -8 -10 -12 -12 -13 -13 -6 -1 2 4 5 4 2 -3 -8 -9 -5 0 4 7 8 8 7 7 6 6 6 6 5 5 4 4 3 2 0 -0 -1 -2 -3
-3 -2 -3 -4 -7 -11 -13 -15 -16 -7 -0 3 3 4 5 4 2 -1 -5 -8 -4 2 4 6 7 8 7 7 6 6 6 5 4 4 4 2 1 -0 -1 -1 -3 -4
-1 -1 -2 -6 -9 -13 -14 -15 -13 -8 -1 3 4 3 4 5 5 4 2 -1 0 3 4 5 7 7 7 7 7 7 6 5 4 4 3 2 1 -1 -2 -2 -3 -3
0 -0 -1 -4 -7 -9 -10 -10 -8 -5 -2 2 4 4 4 4 4 5 5 3 3 4 4 4 6 7 7 6 6 6 5 4 4 3 3 2 1 -1 -1 -2 -2 -3
-0 -1 -1 -1 -3 -4 -4 -4 -5 -5 -2 1 4 4 5 4 4 4 4 4 4 4 3 4 5 6 6 6 6 6 5 4 4 4 3 2 1 -0 -1 -2 -3 -4
-1 -1 -1 -1 -2 -3 -4 -4 -7 -9 -5 1 3 4 4 4 4 4 4 4 4 3 3 4 5 5 6 6 6 6 5 4 4 4 3 1 -0 -1 -2 -3 -3 -3
-3 -2 -1 -2 -2 -3 -4 -6 -10 -12 -6 -0 3 3 4 4 4 4 4 4 3 3 4 5 6 6 5 5 5 5 5 4 4 3 2 -1 -2 -3 -3 -3 -4 -3
-4 -3 -2 -2 -1 -1 -2 -5 -9 -12 -9 -3 2 3 3 3 3 3 4 4 4 4 5 5 6 5 4 3 4 5 4 4 3 1 -0 -2 -3 -4 -4 -4 -4 -4

ECMWFNIL_850_dewp_009.txt.gz
Dewpoint
2 -2 -6 -6 -6 -8 -6 -6 -5 -3 -2 -2 -3 -7 -8 -8 -8 -8 -8 -8 -8 -9 -8 -9 -9 -8 -8 -8 -8 -8 -8 -8 -9 -9 -9 -9 -10 -10 -11 -11 -12 -12
3 1 -2 -3 -4 -5 -3 -3 -3 -3 -2 -0 0 -1 -3 -7 -8 -8 -8 -8 -7 -8 -8 -8 -8 -8 -8 -8 -8 -8 -8 -9 -9 -9 -10 -10 -11 -12 -12 -13 -13 -14
3 3 0 -2 -2 -2 -0 1 1 -1 -0 1 1 1 -0 -3 -7 -7 -8 -7 -7 -7 -7 -8 -8 -8 -8 -8 -8 -8 -8 -9 -9 -10 -9 -11 -12 -12 -12 -13 -13 -13
3 3 1 -0 1 1 2 3 3 2 2 2 1 0 1 -1 -4 -6 -7 -7 -7 -7 -7 -7 -7 -8 -8 -8 -8 -9 -9 -9 -9 -9 -9 -10 -10 -11 -11 -10 -10 -10
3 3 2 1 3 4 3 3 4 4 3 2 1 2 2 -0 -2 -3 -4 -6 -6 -6 -6 -7 -6 -7 -7 -8 -8 -8 -8 -9 -9 -9 -9 -9 -9 -8 -8 -8 -7 -8
3 4 2 2 4 4 4 3 4 4 4 3 3 3 3 2 1 0 -2 -4 -5 -6 -5 -5 -5 -6 -6 -6 -7 -7 -7 -7 -7 -7 -7 -8 -8 -7 -7 -7 -7 -7
4 4 3 3 3 4 4 3 4 4 4 4 4 4 4 3 3 3 2 1 -0 -2 -3 -4 -4 -5 -5 -5 -5 -5 -6 -6 -6 -6 -6 -6 -6 -6 -6 -7 -7 -7
5 4 4 4 3 4 4 4 4 5 4 5 4 4 4 4 4 4 4 4 4 3 2 1 0 -1 -3 -3 -5 -4 -5 -5 -5 -5 -5 -5 -5 -5 -5 -5 -5 -6
6 5 5 5 5 5 5 4 4 5 4 5 4 4 4 4 5 5 5 5 5 5 4 4 4 3 2 1 -1 -2 -3 -4 -4 -4 -4 -4 -4 -4 -4 -4 -4 -5
7 6 6 6 6 5 5 5 5 5 5 4 4 4 4 5 6 6 6 6 6 5 5 5 5 5 5 4 4 3 1 -0 -1 -2 -3 -3 -3 -4 -4 -4 -4 -4
7 7 7 7 6 6 6 5 5 5 5 4 4 4 4 5 6 6 6 6 6 6 5 5 5 5 5 6 5 5 4 3 2 1 -1 -2 -2 -2 -2 -3 -3 -3
7 6 6 7 6 6 5 5 5 5 5 5 5 4 3 4 5 5 5 5 6 6 6 6 5 5 5 6 6 6 6 5 4 3 2 1 -0 -1 -1 -1 -2 -2
8 8 7 7 7 7 6 6 6 5 5 6 5 4 4 4 5 4 4 4 4 5 6 6 6 6 5 6 6 6 6 6 5 5 4 3 2 1 -0 -0 -0 -1
8 8 7 8 8 8 8 7 6 5 5 6 6 6 4 4 4 3 3 3 3 3 3 4 6 6 6 6 6 6 7 6 6 5 5 4 3 2 2 1 1 1
7 6 6 6 6 6 6 6 5 5 5 6 5 4 3 3 3 3 2 2 3 3 3 3 5 6 6 6 6 6 6 6 6 6 5 5 4 3 3 2 2 1
1 1 1 2 2 1 0 0 1 1 2 2 1 1 -0 -1 -0 1 0 0 0 0 -0 2 4 5 5 6 6 6 6 6 6 6 5 5 4 4 4 3 3 2
-2 -3 -2 -2 -3 -2 -2 -3 -3 -3 -4 -3 -3 -2 0 2 2 0 -0 0 2 3 4 5 6 6 6 6 6 6 6 6 6 6 6 5 5 4 4 4 4 3
-3 -4 -4 -3 -2 -2 -4 -4 -4 -5 -7 -6 -5 -5 -3 -1 0 0 0 1 3 4 4 5 6 7 7 7 7 6 6 6 6 6 6 6 5 5 5 5 4 4
-3 -4 -5 -4 -2 -2 -3 -3 -0 1 -1 -3 -2 0 -0 -3 -3 -2 -3 -3 -2 -2 -2 -1 -0 1 4 6 7 8 7 6 6 6 6 6 5 5 5 4 4 4
-3 -2 -3 -4 -4 -5 -6 -6 -3 1 3 3 3 4 5 4 3 3 0 -1 -1 -2 -5 -7 -8 -8 -4 1 6 8 8 7 7 6 6 6 5 5 5 4 3 3
-3 -2 -2 -5 -8 -9 -10 -11 -10 -6 -0 2 3 4 4 4 5 6 4 3 3 0 -4 -8 -8 -6 -5 -1 4 7 8 7 6 6 5 5 5 4 4 3 2 2
-1 -1 -2 -4 -7 -9 -10 -12 -13 -13 -10 -6 -3 -0 1 2 2 4 5 5 5 4 1 -2 -3 -2 -2 -1 3 5 6 7 6 6 6 5 4 3 3 2 2 1
0 0 -1 -2 -5 -6 -8 -12 -13 -14 -15 -15 -12 -7 -2 -0 1 2 4 4 5 5 3 1 0 0 1 2 3 5 6 6 6 5 5 4 3 3 3 2 1 0
-0 -1 -1 -2 -2 -4 -6 -9 -11 -12 -14 -16 -16 -12 -6 -1 2 3 3 3 4 3 2 2 2 2 2 3 4 6 7 6 5 4 4 4 3 3 2 1 0 -0
-2 -2 -2 -1 -2 -3 -6 -7 -8 -8 -12 -14 -15 -14 -9 -2 2 3 3 3 3 2 2 2 2 2 2 3 4 5 6 6 5 5 4 3 3 2 1 1 0 -1
-5 -4 -3 -3 -4 -5 -6 -6 -6 -7 -8 -11 -14 -15 -8 -1 3 3 3 3 3 3 3 2 2 2 2 3 4 5 5 3 3 4 4 3 2 2 2 1 -0 -2

ECMWFNIL_850_dewp_015.txt.gz
Dewpoint
-6 -8 -9 -10 -11 -9 -9 -12 -13 -13 -12 -11 -10 -10 -10 -9 -9 -9 -9 -9 -9 -9 -9 -9 -9 -9 -8 -9 -9 -9 -9 -9 -9 -10 -10 -10 -10 -10 -10 -11 -11 -11
-6 -7 -4 -5 -8 -9 -10 -11 -13 -14 -12 -11 -10 -10 -10 -10 -9 -9 -9 -9 -9 -9 -9 -9 -9 -8 -8 -8 -9 -9 -9 -9 -10 -10 -10 -11 -11 -11 -11 -12 -12 -14
-4 -4 -2 -4 -5 -4 -7 -12 -11 -12 -11 -10 -10 -9 -9 -10 -10 -10 -10 -10 -9 -9 -9 -9 -9 -9 -8 -9 -10 -10 -11 -11 -11 -13 -13 -13 -13 -13 -13 -14 -14 -14
-2 -0 -1 -7 -5 1 -2 -10 -11 -10 -11 -10 -9 -9 -9 -9 -9 -10 -10 -10 -10 -10 -10 -10 -10 -10 -10 -10 -12 -11 -11 -11 -10 -10 -10 -10 -10 -10 -10 -10 -10 -11
1 3 2 -5 -7 1 1 -7 -11 -10 -10 -9 -9 -9 -8 -9 -9 -9 -10 -10 -11 -10 -10 -11 -11 -11 -11 -11 -10 -10 -9 -8 -8 -8 -8 -7 -7 -7 -7 -7 -7 -7
3 3 3 -1 -5 1 3 -3 -8 -8 -9 -8 -9 -9 -8 -8 -8 -8 -9 -8 -9 -10 -10 -11 -11 -11 -11 -9 -9 -8 -8 -7 -7 -7 -7 -6 -7 -7 -6 -7 -6 -6
4 3 3 0 -3 1 4 0 -3 -4 -5 -3 -4 -6 -8 -9 -8 -8 -8 -8 -8 -8 -8 -9 -9 -9 -9 -9 -8 -8 -7 -7 -7 -7 -7 -6 -6 -6 -6 -6 -6 -6
3 4 4 0 -2 1 4 3 1 -1 -1 1 2 -0 -2 -5 -6 -6 -7 -7 -7 -6 -6 -7 -7 -7 -7 -7 -7 -7 -6 -6 -6 -6 -6 -6 -5 -6 -6 -6 -5 -6
3 4 4 1 0 2 4 4 3 1 1 2 3 3 3 2 0 -1 -2 -3 -4 -4 -5 -5 -4 -4 -4 -4 -4 -4 -4 -4 -4 -5 -5 -5 -5 -5 -5 -5 -4 -5
3 4 3 2 1 2 4 5 4 3 3 3 3 4 4 4 4 3 3 2 2 1 1 1 1 0 0 -0 0 0 0 1 1 -0 -1 -2 -2 -3 -3 -3 -3 -4
2 3 3 2 2 2 4 5 5 4 3 4 4 4 5 5 5 5 4 4 4 4 4 4 4 3 3 3 3 4 4 4 4 4 3 3 3 2 2 1 0 -0
1 2 2 2 2 2 4 5 5 5 5 5 5 4 4 5 5 5 5 5 5 5 5 5 5 4 4 4 4 5 5 5 5 5 5 5 5 5 5 5 5 4
2 1 2 3 2 3 5 5 5 5 5 6 6 6 5 5 5 4 5 5 4 4 6 6 6 5 5 4 4 4 4 4 5 6 6 6 6 6 6 6 6 6
5 4 4 5 3 3 5 5 4 4 4 5 6 6 6 5 5 4 4 5 4 4 6 6 6 6 6 5 5 5 5 4 4 5 6 7 6 6 6 6 6 6
6 5 5 5 3 3 5 5 5 4 4 4 5 5 5 5 5 5 4 5 5 6 6 6 6 6 6 6 6 6 6 5 5 4 5 6 6 6 7 6 6 6
6 6 6 5 4 5 5 4 5 5 4 4 4 5 5 5 5 5 5 5 6 6 5 5 6 7 7 7 6 6 6 6 5 4 4 5 6 7 7 6 6 5
7 6 7 7 6 6 5 4 5 5 4 3 4 5 5 5 5 6 5 6 6 5 5 5 6 7 7 6 6 6 5 5 4 4 4 5 6 7 7 7 6 6
6 6 7 7 7 7 6 5 5 5 5 4 4 5 6 5 5 6 6 6 5 4 5 6 6 6 6 6 6 6 6 6 5 5 5 5 6 6 7 7 7 7
4 5 6 7 7 7 6 6 6 6 6 6 5 5 6 6 6 6 6 5 5 5 6 6 5 5 5 5 6 6 6 6 7 7 7 7 7 7 7 7 7 7
1 4 5 6 6 4 3 4 5 5 6 6 6 6 6 6 6 7 6 6 6 6 5 4 4 3 3 2 2 1 -0 -1 1 3 4 5 7 7 7 7 7 7
-3 -0 2 3 3 2 2 3 4 4 5 5 6 6 6 6 6 6 6 5 5 4 3 2 1 1 0 -1 -3 -5 -6 -5 -5 -4 -2 -0 2 4 6 7 7 7
-4 -3 -1 0 1 1 2 2 2 2 2 3 3 3 3 3 4 4 4 3 2 -0 -1 -1 -1 -1 -1 -2 -3 -4 -4 -4 -4 -4 -3 -1 1 3 5 6 6 6
-2 -2 -2 -2 -1 -1 -0 -1 -1 -2 -1 -1 -0 -1 -2 -1 -1 -0 -1 -1 -2 -3 -4 -2 -1 -1 -1 -1 -2 -2 -3 -4 -5 -4 -3 -2 -0 1 3 4 5 5
-2 -2 -2 -2 -2 -3 -4 -5 -6 -5 -4 -4 -3 -2 -3 -4 -5 -5 -6 -6 -5 -5 -4 -3 -2 -1 -1 -1 -1 -2 -3 -4 -4 -3 -2 -2 -2 -1 1 4 5 5
-2 -1 -1 -1 -2 -3 -4 -6 -9 -9 -9 -8 -8 -7 -7 -8 -8 -9 -9 -8 -8 -7 -7 -6 -4 -3 -1 -1 -0 -0 0 0 -0 -1 -0 1 1 1 2 3 4 4
-2 -2 -1 -1 -1 -1 -1 -3 -5 -8 -9 -10 -10 -11 -11 -10 -10 -10 -9 -9 -9 -9 -8 -8 -6 -5 -2 0 1 2 2 3 2 2 3 3 3 3 3 3 3 3

ECMWFNIL_850_dewp_021.txt.gz
Dewpoint
7 3 -1 -2 -3 -6 -7 -9 -9 -9 -10 -10 -11 -10 -9 -8 -10 -10 -11 -11 -10 -9 -8 -9 -8 -8 -8 -7 -6 -5 -2 -2 -6 -9 -10 -11 -11 -11 -11 -11 -13 -13
5 2 -1 1 -1 -5 -6 -8 -10 -10 -10 -11 -11 -10 -9 -9 -9 -9 -9 -10 -10 -10 -9 -9 -9 -8 -8 -8 -8 -8 -8 -9 -10 -10 -10 -11 -11 -13 -13 -14 -14 -14
-0 0 1 2 0 -3 -5 -7 -10 -10 -10 -11 -11 -10 -10 -10 -9 -9 -9 -9 -9 -9 -8 -8 -9 -9 -9 -9 -9 -10 -10 -10 -11 -12 -13 -14 -14 -15 -14 -12 -10 -8
-1 1 2 3 1 -1 -4 -8 -10 -9 -10 -10 -11 -10 -10 -10 -9 -9 -8 -9 -9 -9 -8 -8 -8 -8 -9 -9 -9 -10 -11 -11 -13 -13 -13 -12 -12 -12 -10 -6 -4 -3
2 1 3 4 2 -1 -4 -9 -8 -8 -10 -10 -10 -10 -9 -10 -9 -9 -9 -9 -8 -8 -8 -8 -8 -8 -9 -9 -10 -10 -11 -12 -12 -11 -10 -9 -8 -8 -7 -5 -3 -2
3 2 4 5 2 -1 -3 -8 -6 -6 -9 -10 -10 -10 -9 -9 -9 -9 -9 -9 -9 -8 -7 -8 -8 -9 -9 -9 -9 -9 -10 -11 -10 -9 -8 -7 -7 -7 -6 -6 -5 -4
5 3 5 6 3 1 -1 -5 -4 -3 -6 -9 -9 -10 -9 -9 -8 -8 -9 -8 -8 -8 -8 -8 -8 -8 -9 -9 -9 -9 -9 -9 -8 -8 -7 -7 -7 -7 -6 -6 -6 -5
6 5 5 6 5 2 0 -3 -3 -1 -3 -6 -8 -9 -9 -9 -8 -8 -8 -8 -8 -8 -8 -8 -8 -8 -9 -8 -9 -8 -8 -8 -8 -8 -8 -8 -7 -7 -7 -6 -6 -5
6 6 6 6 4 3 1 -2 -2 0 -1 -3 -6 -9 -9 -9 -8 -8 -8 -7 -7 -7 -7 -7 -7 -7 -8 -7 -7 -7 -7 -7 -7 -6 -7 -7 -7 -6 -6 -5 -5 -4
7 6 7 6 3 3 2 -2 -2 -0 1 -0 -3 -6 -7 -8 -8 -8 -7 -7 -7 -7 -6 -6 -7 -6 -6 -6 -6 -5 -5 -5 -4 -4 -3 -4 -4 -4 -4 -4 -4 -3
8 8 8 7 4 4 3 0 -1 -0 1 2 0 -3 -3 -4 -5 -5 -6 -5 -4 -5 -4 -5 -5 -5 -5 -5 -4 -4 -3 -2 -2 -1 -0 -0 -0 -1 -1 -1 -1 -1
9 8 8 7 5 5 4 4 3 2 1 2 2 1 0 0 0 0 0 1 1 1 0 -1 -1 -1 -2 -2 -1 -1 -0 1 1 2 3 3 3 3 2 2 1 1
9 8 8 8 6 6 5 5 6 5 3 3 3 3 3 2 2 3 3 4 4 4 3 3 3 2 2 2 3 2 3 3 4 4 4 5 5 5 5 5 4 3
9 8 8 7 7 6 6 5 5 5 5 4 4 4 4 4 4 3 3 4 5 5 5 4 4 4 4 4 5 5 5 5 4 5 5 5 5 5 6 6 5 5
9 9 8 7 6 5 5 4 5 5 5 4 4 4 4 4 4 4 3 3 4 5 5 5 4 4 4 5 5 5 5 5 4 4 5 4 5 5 5 5 5 5
8 8 8 7 7 6 5 4 4 4 4 4 5 5 4 4 3 4 3 3 4 4 5 5 4 4 4 4 4 4 4 5 5 5 5 5 5 5 6 6 5 5
8 8 8 7 7 7 6 5 5 5 5 6 6 6 6 5 4 4 4 3 3 3 4 4 4 4 4 4 4 4 5 5 5 5 5 5 5 5 5 6 6 5
8 8 8 8 8 7 7 7 6 7 7 7 7 7 6 6 6 5 5 4 4 4 3 3 3 4 4 4 4 5 5 5 5 5 5 5 5 6 6 6 6 6
7 7 8 8 8 8 8 8 7 7 7 7 6 6 6 6 6 6 6 5 5 4 4 3 2 3 3 3 4 5 6 6 6 6 5 4 3 3 2 3 5 6
4 4 5 6 7 7 8 8 8 8 7 7 6 6 6 6 6 6 6 6 6 5 4 3 3 3 3 4 5 6 5 5 4 3 1 -1 -2 -3 -4 -2 1 3
1 1 1 2 4 6 7 7 8 8 7 7 7 7 7 7 6 6 6 6 6 5 4 4 4 4 5 5 6 5 4 3 1 -1 -2 -3 -4 -4 -4 -4 -3 -2
-1 -1 -0 1 3 5 7 7 7 7 7 6 6 6 7 7 7 6 5 6 6 5 5 5 5 4 5 6 5 5 4 2 0 -1 -3 -4 -4 -4 -4 -5 -4 -4
-2 -3 -3 -2 0 2 4 5 6 6 5 5 5 6 7 7 7 6 6 6 6 6 6 6 5 5 6 6 5 5 3 1 0 -1 -4 -5 -5 -4 -4 -4 -4 -3
-2 -3 -4 -4 -3 -1 1 3 4 4 4 4 4 5 6 6 6 6 6 6 6 6 6 6 5 6 6 5 5 4 2 1 -0 -2 -3 -3 -3 -3 -3 -3 -3 -3
-2 -2 -2 -2 -1 -1 -0 1 2 2 1 2 2 3 4 5 6 6 6 6 6 6 6 5 5 5 5 3 3 2 1 1 0 -1 -2 -2 -2 -2 -2 -3 -3 -3
-2 -2 -2 -2 -1 -1 -1 0 0 -2 -2 -1 0 1 2 3 4 5 5 5 4 3 3 2 2 2 2 1 2 2 2 2 2 1 0 -0 -1 -1 -2 -2 -2 -2

ECMWFNIL_850_dewp_024.txt.gz
Dewpoint
6 6 2 -0 -1 -6 -9 -7 -6 -6 -6 -1 2 2 -0 -5 -11 -9 -8 -8 -4 -3 -6 -7 -8 -5 -1 1 4 6 5 1 -1 -2 -2 1 2 3 2 1 1 0
6 6 1 -2 -1 -2 -4 -7 -9 -11 -13 -7 -2 -4 -9 -11 -11 -11 -11 -10 -9 -10 -10 -9 -10 -9 -2 0 2 4 1 -8 -10 -9 -10 -9 -7 -8 -8 -9 -11 -11
3 6 3 0 1 1 -1 -6 -11 -13 -12 -10 -8 -10 -11 -10 -10 -10 -10 -10 -10 -9 -9 -9 -9 -10 -7 -5 -4 -2 -6 -11 -10 -10 -10 -10 -12 -13 -13 -15 -15 -12
-1 4 5 2 2 2 1 -5 -10 -12 -11 -11 -10 -10 -10 -10 -10 -9 -9 -9 -9 -8 -8 -8 -9 -9 -9 -10 -8 -8 -10 -11 -11 -12 -12 -13 -14 -14 -13 -12 -9 -7
2 3 5 3 3 4 2 -4 -9 -11 -10 -10 -10 -10 -10 -9 -9 -8 -9 -8 -8 -9 -9 -8 -9 -9 -9 -10 -10 -11 -11 -12 -13 -12 -12 -13 -12 -10 -9 -7 -5 -4
5 4 4 4 3 4 3 -3 -9 -8 -10 -10 -9 -10 -10 -9 -9 -9 -9 -9 -9 -8 -8 -8 -9 -10 -10 -11 -11 -11 -10 -9 -11 -10 -9 -10 -8 -7 -6 -4 -3 -3
6 6 5 5 4 4 3 -2 -6 -6 -8 -10 -9 -9 -9 -9 -9 -9 -8 -9 -8 -7 -7 -9 -9 -10 -10 -10 -10 -10 -8 -8 -8 -6 -5 -6 -6 -5 -5 -3 -2 -2
7 7 6 5 4 4 3 -1 -4 -4 -6 -9 -9 -9 -9 -9 -8 -9 -9 -8 -7 -6 -7 -9 -9 -9 -9 -9 -9 -9 -8 -8 -6 -3 -2 -5 -6 -4 -5 -5 -3 -3
8 7 7 6 5 5 4 1 -1 -2 -3 -5 -8 -9 -8 -9 -9 -8 -9 -8 -8 -8 -8 -8 -9 -8 -8 -8 -8 -8 -8 -8 -7 -4 -4 -5 -4 -2 -3 -4 -4 -3
8 7 7 6 5 6 6 4 2 0 -1 -1 -4 -7 -8 -9 -9 -8 -8 -7 -8 -8 -7 -8 -8 -8 -8 -7 -7 -7 -7 -7 -7 -6 -6 -4 -1 0 -1 -2 -2 -1
8 7 7 6 5 7 7 5 3 2 0 -0 0 -2 -6 -7 -8 -8 -8 -7 -7 -7 -7 -7 -7 -7 -7 -6 -6 -6 -5 -5 -5 -4 -4 -3 -1 -1 -1 -1 0 2
9 8 8 7 7 8 8 5 3 4 1 -1 1 1 -1 -2 -3 -4 -7 -7 -5 -5 -6 -7 -6 -6 -6 -5 -5 -4 -4 -3 -2 -1 -1 -1 -0 -1 -1 -1 1 2
10 9 9 9 9 9 8 5 4 5 3 0 1 2 2 1 1 1 -1 -2 -1 -4 -5 -5 -4 -4 -4 -3 -2 -1 -1 0 1 1 2 3 3 3 3 3 3 3
10 10 9 9 9 9 8 5 5 5 5 4 3 2 3 2 2 3 3 3 3 0 -1 -1 -0 0 -0 -0 2 3 2 3 3 4 4 5 5 5 5 5 5 5
10 10 9 9 9 9 8 7 6 6 6 6 5 4 4 4 4 4 3 4 4 3 3 3 3 4 3 2 3 4 4 5 5 5 5 6 6 6 6 5 5 6
9 9 9 9 9 9 8 7 7 7 7 7 6 6 5 5 5 6 5 4 4 4 4 4 4 4 4 4 4 4 5 5 5 5 5 5 6 6 5 5 5 5
9 9 9 9 9 9 9 8 7 7 7 6 6 6 5 4 5 5 5 5 5 5 4 4 4 5 5 4 4 5 4 5 5 5 5 5 5 5 5 5 5 6
9 9 9 9 9 9 9 8 8 7 7 7 6 6 6 6 6 6 6 6 6 5 5 4 4 4 4 5 4 4 4 4 4 4 4 5 5 5 5 5 5 7
7 8 8 9 9 9 8 8 8 8 8 7 7 7 7 8 7 7 7 7 7 6 6 6 5 4 4 5 5 4 4 3 3 4 4 4 5 5 4 5 7 8
4 6 7 7 8 8 8 8 8 8 8 8 8 8 8 8 8 8 8 7 7 7 7 7 6 5 4 4 5 5 4 3 3 3 3 4 5 5 4 4 5 5
1 2 3 3 3 4 5 6 7 8 8 8 8 8 8 8 7 7 7 7 7 7 7 7 7 6 5 4 5 5 4 3 3 3 3 4 4 2 -1 -1 -2 -3
-1 -1 -1 -0 1 2 3 4 5 6 7 7 8 8 8 7 7 7 7 7 7 7 8 8 7 6 5 4 5 5 4 4 4 3 3 3 1 -2 -4 -4 -5 -5
-1 -2 -2 -2 -2 0 3 4 4 4 6 6 6 6 7 6 7 7 7 7 6 7 7 8 7 5 5 5 5 5 4 4 4 3 2 1 -2 -4 -4 -4 -5 -5
-1 -1 -2 -3 -4 -2 1 3 3 3 4 3 3 4 5 5 6 7 8 7 6 6 7 7 6 5 5 6 6 6 5 4 4 3 1 -1 -4 -4 -4 -5 -5 -5
-1 -1 -1 -2 -2 -1 0 2 3 4 3 2 1 2 4 4 5 6 7 7 6 6 6 6 5 4 5 6 6 5 5 4 4 3 0 -2 -3 -3 -3 -3 -4 -4
-1 -1 -1 -2 -1 -1 -0 1 2 4 3 0 -0 2 3 3 4 6 6 6 6 6 6 6 5 4 5 6 6 5 4 3 4 3 0 -1 -1 -2 -2 -2 -2 -2

ECMWFNIL_850_dewp_030.txt.gz
Dewpoint
6 8 8 5 4 7 7 6 6 6 7 7 7 8 7 4 4 4 5 6 7 7 7 5 4 5 6 7 7 7 6 6 7 8 8 8 8 8 7 6 6 5
7 9 8 7 6 7 7 6 6 7 7 7 7 7 5 0 -2 -1 1 4 4 4 3 3 4 6 7 7 6 5 5 5 6 6 7 7 7 7 4 3 2 1
7 9 8 8 7 5 4 4 5 5 6 6 6 4 0 -6 -9 -5 -3 -2 -4 -5 -4 -2 2 6 7 6 4 3 3 4 4 4 4 3 2 2 1 0 0 -0
6 8 8 8 7 3 2 2 2 2 2 2 2 -0 -5 -12 -13 -9 -8 -9 -11 -11 -10 -5 0 4 5 5 4 3 1 0 -0 -0 -1 -3 -5 -3 1 2 2 2
6 7 7 8 6 3 1 3 2 -1 -3 -4 -5 -7 -10 -13 -10 -11 -13 -11 -11 -11 -10 -8 -3 2 3 4 3 -0 -4 -6 -7 -8 -10 -9 -10 -6 0 3 2 1
6 6 7 8 6 3 2 4 3 -2 -6 -8 -10 -11 -12 -10 -5 -6 -8 -8 -9 -10 -9 -10 -7 -1 2 -0 -2 -4 -8 -10 -9 -11 -12 -8 -8 -6 -0 3 2 2
6 5 7 8 6 3 4 5 4 -1 -8 -12 -9 -8 -9 -4 1 0 -1 -2 -4 -3 -4 -7 -9 -5 -3 -3 -2 -3 -7 -9 -6 -5 -4 -2 -1 1 3 3 2 2
7 6 7 7 6 5 5 6 4 -0 -9 -12 -6 -5 -5 0 3 2 1 1 1 1 -0 -3 -5 -7 -4 0 -0 -3 -5 -3 -0 -0 -1 0 2 3 3 2 0 -0
8 7 8 8 7 6 7 6 4 1 -8 -9 -3 -3 -2 3 2 1 2 2 2 2 1 0 0 -1 1 2 -2 -6 -3 1 2 0 -1 1 3 2 1 0 -2 -4
9 8 8 8 8 7 8 7 5 1 -7 -6 -1 -1 0 3 1 0 2 2 2 3 1 1 2 0 -0 -2 -6 -6 -1 2 1 -1 -1 0 1 0 -1 -2 -4 -5
9 8 9 8 8 8 9 8 6 3 -3 -5 -2 -0 2 4 1 -0 2 2 2 2 2 2 1 -1 -1 -3 -7 -6 -2 1 -0 -1 -1 -0 1 1 -1 -3 -3 -4
9 9 9 9 9 9 9 8 7 6 2 -1 -1 -0 3 4 2 0 2 2 1 2 2 1 -1 -2 0 1 -3 -5 -4 -2 -2 -2 -2 0 1 1 1 -1 -1 -1
10 10 10 10 9 9 9 9 8 8 6 4 3 2 1 2 2 2 3 2 1 2 1 2 -0 -3 -0 2 0 -1 -1 -3 -3 -2 -2 -0 1 1 1 -1 1 3
10 10 10 10 9 9 9 9 9 9 8 6 6 5 3 1 0 2 4 3 2 2 1 1 2 -0 -0 -0 -1 -1 -1 -3 -3 -4 -4 -2 -2 -1 0 -1 -0 4
10 10 10 10 10 10 10 10 9 9 8 7 7 6 6 5 3 3 4 4 3 3 2 1 2 2 2 1 -1 -2 -4 -6 -5 -5 -5 -4 -3 -2 1 1 2 3
10 10 10 10 10 10 10 10 10 9 9 8 7 7 7 6 5 5 5 4 4 4 3 3 2 2 2 2 1 1 -1 -4 -6 -6 -6 -4 -3 -1 3 5 5 4
9 9 9 9 9 9 9 9 9 9 8 8 8 7 6 6 6 6 6 5 5 4 4 4 3 3 3 3 3 3 3 1 -1 -3 -4 -1 2 3 5 7 7 6
8 9 9 9 9 9 9 9 9 8 8 8 8 7 6 6 6 6 6 6 6 5 5 4 4 4 4 4 4 3 3 3 2 1 -0 1 4 6 7 7 7 7
6 7 7 7 7 7 7 8 9 8 8 7 7 6 6 6 6 5 6 6 6 6 5 5 5 5 4 3 4 5 4 2 2 2 2 1 3 6 7 8 7 7
4 5 5 5 6 6 6 7 8 8 8 7 7 6 6 7 6 6 6 6 6 6 6 6 6 5 4 3 3 5 6 4 3 4 4 4 5 7 8 8 7 6
2 3 3 4 5 5 6 6 6 7 7 8 8 7 7 7 7 7 7 6 6 6 6 6 5 4 4 3 3 5 6 6 5 5 5 6 7 8 7 6 7 6
1 2 2 2 3 3 4 5 5 6 6 7 7 7 7 7 7 7 7 7 7 6 6 6 5 4 4 4 4 4 5 5 5 6 6 6 7 7 6 5 6 6
0 1 1 2 2 2 2 3 3 4 5 6 6 6 6 7 7 7 6 6 6 6 6 6 6 5 5 5 5 5 6 5 5 6 6 6 6 6 5 5 6 5
-1 -1 -0 1 2 2 2 2 3 3 4 5 5 5 6 7 7 7 7 6 6 6 6 6 5 5 5 6 6 6 6 6 5 6 7 7 6 6 6 6 6 5
-5 -4 -2 -1 0 1 2 2 3 3 3 3 4 4 5 5 6 6 6 6 6 6 6 6 5 5 5 6 6 6 6 6 6 6 7 7 6 6 7 7 6 5
-9 -7 -4 -3 -2 -0 0 0 1 1 2 2 2 3 4 5 5 5 5 5 5 6 7 6 5 4 4 5 5 5 5 6 7 7 8 7 7 7 7 6 5 5

ECMWFNIL_850_dewp_033.txt.gz
Dewpoint
4 2 -2 -4 -5 -4 1 4 6 7 7 7 7 7 8 6 4 7 9 8 6 5 6 7 8 8 8 6 5 6 6 7 7 8 8 8 8 8 7 6 6 6
6 4 1 -1 -1 3 5 5 6 7 7 7 7 7 7 5 3 5 8 7 6 5 5 7 7 8 8 7 6 7 7 7 8 8 8 8 8 7 6 4 4 5
8 6 3 0 2 5 6 5 6 7 7 6 6 6 6 4 0 2 5 5 3 2 3 6 7 7 7 6 6 6 7 7 7 8 8 7 5 4 4 3 3 3
8 7 5 3 4 6 6 5 5 6 5 4 4 4 3 -2 -5 -2 1 -0 -4 -5 -0 5 7 7 6 5 5 5 5 5 5 7 7 5 3 2 2 1 1 1
9 8 7 6 6 5 4 3 3 2 2 1 0 -1 -5 -9 -10 -7 -7 -9 -10 -9 -5 1 5 6 5 5 4 4 4 3 3 3 4 3 1 1 1 0 0 1
9 10 9 8 7 4 2 2 2 0 -1 -2 -5 -9 -12 -12 -10 -10 -11 -11 -10 -10 -9 -4 2 5 4 3 3 2 2 -0 -1 -1 -0 1 1 1 -1 -2 -2 -1
10 10 8 8 8 4 1 2 2 -1 -4 -6 -9 -11 -13 -11 -7 -6 -6 -7 -7 -8 -10 -8 -2 1 1 1 -1 -2 -3 -4 -4 -5 -3 -0 0 -0 -1 -1 -2 -3
10 10 8 8 7 4 2 3 3 -0 -6 -8 -8 -10 -11 -6 -2 -0 -0 -1 -2 -3 -6 -8 -6 -3 -0 -0 -2 -3 -2 -1 -2 -2 -1 1 0 -1 1 2 1 -2
10 9 8 8 7 4 4 5 4 0 -7 -8 -6 -7 -5 -1 2 2 2 2 1 -0 -3 -5 -5 -1 1 -1 -2 -0 1 1 2 2 3 4 2 0 1 2 1 -1
9 9 8 8 6 5 6 5 5 1 -7 -7 -4 -4 -1 3 2 1 2 2 2 1 0 -1 -0 1 0 -2 -1 1 1 1 2 3 4 4 3 1 -0 1 0 -1
8 7 7 7 6 7 7 6 5 2 -6 -5 -1 -2 1 4 2 1 2 2 2 2 1 1 0 -2 -4 -3 0 2 2 1 2 3 4 3 1 -0 -2 -1 -2 -3
9 8 8 9 8 8 8 7 6 3 -3 -2 1 0 2 4 1 0 2 2 2 2 2 2 0 -4 -8 -7 -2 1 1 1 1 2 2 2 0 -2 -3 -4 -4 -5
9 9 8 9 9 8 8 7 6 5 2 -0 1 2 3 4 2 0 2 2 1 2 3 2 1 -2 -5 -10 -10 -6 -4 -2 0 1 1 1 0 -2 -3 -4 -5 -5
9 8 8 9 9 9 9 8 7 7 6 3 2 2 2 3 2 2 2 2 1 2 2 2 1 0 -0 -4 -9 -10 -9 -6 -3 -1 -0 0 -0 -1 -2 -3 -4 -4
9 9 9 9 9 9 9 8 8 8 7 6 5 5 4 3 2 2 2 2 2 2 1 2 1 1 1 -1 -3 -5 -8 -9 -7 -4 -3 -2 -2 -1 -2 -2 -3 -4
10 10 9 9 9 9 9 9 9 9 8 7 6 7 6 5 4 3 3 2 2 2 2 2 2 1 1 1 0 -0 -2 -4 -5 -6 -6 -4 -4 -3 -2 -2 -2 -2
9 8 8 9 9 9 10 9 10 10 9 8 7 7 7 7 6 5 4 3 3 3 3 3 2 2 2 2 2 2 1 0 -1 -3 -4 -3 -3 -1 0 0 -0 -0
7 6 6 6 6 7 7 8 9 9 9 8 7 7 7 7 7 6 5 5 4 4 4 4 3 3 2 2 2 2 2 2 2 1 1 -0 1 3 4 3 2 1
6 6 6 5 6 5 4 5 8 9 9 8 8 7 7 7 7 7 6 6 5 5 4 4 4 4 3 3 3 2 3 3 3 3 4 3 4 5 5 5 4 4
3 4 4 5 6 6 5 6 7 8 7 8 8 8 8 7 7 7 7 6 5 5 5 5 4 4 4 4 3 3 3 3 3 4 5 6 6 5 5 6 6 6
2 2 2 3 4 4 5 6 7 7 6 6 6 6 7 8 8 8 7 7 7 7 6 6 5 5 5 4 4 4 4 4 3 4 5 6 6 6 5 6 6 5
2 2 2 2 3 3 3 3 4 5 6 6 5 5 6 6 6 7 7 7 7 7 7 7 6 6 6 5 5 5 5 4 4 4 5 6 7 7 6 6 6 6
-1 -1 -0 0 1 2 2 2 2 3 4 5 5 5 5 5 5 5 6 6 6 6 6 6 6 6 5 5 5 5 5 5 4 4 4 6 7 8 7 7 6 6
-3 -3 -3 -2 -2 -2 -0 0 1 2 3 3 4 4 4 4 4 4 5 6 5 5 5 5 4 4 4 4 3 4 4 4 5 5 5 5 6 7 7 7 6 6
-5 -5 -5 -5 -5 -6 -5 -4 -3 -1 0 1 3 3 3 4 4 4 5 5 5 4 4 4 4 3 3 3 3 3 3 3 4 5 6 6 6 6 6 7 7 6
-10 -10 -10 -10 -9 -9 -9 -8 -8 -7 -5 -4 -2 -2 -1 0 1 3 4 4 5 5 5 5 4 3 3 3 3 2 2 2 3 4 5 6 7 7 7 7 7 7

ECMWFNIL_850_dewp_036.txt.gz
Dewpoint
8 6 2 -2 -7 -10 -7 -2 -0 2 3 4 6 5 5 4 2 1 5 7 7 7 6 6 6 5 3 2 3 4 5 5 5 6 6 7 7 7 7 7 8 9
8 8 5 -1 -8 -10 -4 0 0 1 3 5 6 6 6 6 2 0 4 5 6 6 6 6 6 4 2 2 4 5 5 5 6 6 7 7 7 7 7 7 8 8
7 7 5 -0 -6 -7 -2 1 0 3 5 6 7 6 6 7 3 0 2 3 4 6 7 6 6 5 2 2 4 5 5 6 7 7 8 8 7 6 6 7 7 8
8 8 6 3 -2 -4 -1 1 1 4 6 6 7 6 7 6 1 -3 -0 1 2 6 7 7 6 6 3 2 4 5 6 7 7 8 8 7 6 5 5 6 6 7
9 9 8 4 -0 -1 1 2 2 4 6 7 7 7 7 3 -4 -7 -4 -4 -3 3 6 6 5 4 3 3 4 5 6 7 8 8 7 6 5 4 4 3 3 4
9 9 8 5 1 1 3 3 2 3 6 6 6 6 4 -3 -11 -10 -8 -10 -8 -2 1 3 4 3 2 4 4 3 5 7 8 7 6 4 3 2 2 2 1 1
9 9 8 5 3 3 3 3 2 3 5 5 5 4 -2 -12 -13 -10 -11 -12 -11 -6 -3 -1 1 1 2 4 3 2 3 5 7 7 4 2 1 1 1 1 1 1
10 9 8 7 6 6 4 2 2 2 3 3 1 -2 -9 -10 -8 -9 -10 -10 -11 -9 -5 -3 -1 -1 1 3 3 2 1 1 4 5 3 1 1 0 0 1 0 0
9 9 9 8 8 7 4 1 2 2 -0 -1 -4 -8 -7 -4 -4 -5 -5 -6 -8 -9 -8 -6 -4 -2 -1 0 -1 -2 -4 -4 -0 2 2 -0 -1 -2 -2 -1 0 0
9 9 8 7 8 8 5 2 3 2 -1 -4 -7 -8 -2 0 -0 -0 -0 -1 -3 -7 -10 -8 -5 -5 -5 -5 -6 -8 -10 -11 -6 -2 -3 -4 -5 -6 -7 -5 -3 -1
8 8 8 7 7 7 5 3 4 4 -0 -5 -6 -4 1 2 2 1 1 2 1 -3 -9 -9 -6 -5 -5 -5 -6 -7 -9 -9 -7 -5 -6 -6 -6 -7 -7 -7 -6 -5
8 8 8 8 7 6 5 5 5 5 1 -4 -3 0 3 3 2 1 2 2 2 1 -3 -6 -5 -4 -3 -2 -2 -4 -5 -3 -1 -1 -2 -3 -3 -4 -4 -2 -4 -4
8 8 8 8 7 7 6 6 6 5 2 -1 -0 2 3 3 2 1 2 2 2 2 1 -0 -1 -3 -3 -0 0 -1 -2 0 2 3 2 0 -1 -2 -2 -1 -1 -2
8 8 8 8 8 7 6 6 6 5 3 3 3 2 3 4 2 0 2 2 2 2 2 2 2 -2 -4 -1 1 1 1 0 1 3 3 2 0 -1 -1 -1 -1 -1
8 8 8 8 8 7 7 7 6 6 5 5 5 4 3 4 3 0 1 2 2 2 2 2 3 1 -2 -2 -2 -1 -0 0 1 2 2 1 0 -2 -1 -1 -2 -3
9 9 8 8 8 8 8 6 6 6 6 6 6 5 4 5 4 2 2 3 2 1 2 2 2 2 1 -1 -2 -3 -3 -2 -1 1 1 0 -1 -2 -3 -2 -3 -4
9 9 8 8 8 8 8 7 6 6 6 6 6 6 5 5 5 4 3 3 3 2 2 2 2 2 2 1 1 -0 -1 -2 -2 -0 1 0 -0 -1 -3 -3 -3 -3
9 9 9 8 8 8 8 7 6 6 7 7 7 7 7 6 6 5 4 3 3 2 3 3 3 3 2 2 2 2 1 0 -0 -0 -0 -0 1 1 -0 -1 -2 -3
8 8 8 8 8 8 8 7 7 7 7 8 8 8 8 7 6 6 6 5 4 3 3 3 4 4 3 2 2 2 2 2 2 2 1 1 1 1 0 -1 -2 -2
5 6 7 7 7 7 8 8 9 9 8 7 7 7 8 8 7 7 7 6 6 5 4 4 4 5 5 4 3 2 2 2 2 2 2 2 2 2 1 0 -1 -2
2 3 4 4 5 5 6 7 8 8 8 8 7 7 7 8 7 7 7 7 7 7 6 5 5 5 5 5 5 4 3 3 3 3 3 3 3 3 3 3 2 1
2 2 2 3 3 3 4 5 5 6 7 7 8 8 7 7 6 7 7 7 7 7 7 7 6 6 6 6 6 6 5 5 4 4 3 3 3 4 4 4 5 4
1 1 1 2 2 3 3 3 3 4 5 5 6 6 6 6 6 5 5 6 6 7 7 7 7 7 6 6 6 7 7 6 6 5 5 4 4 4 4 5 5 5
-2 -2 -2 -2 -0 0 2 2 3 3 3 3 4 4 4 4 4 4 4 5 5 5 6 6 5 5 5 6 6 6 6 6 7 6 6 6 6 5 5 5 6 6
-6 -6 -6 -7 -6 -5 -4 -2 -0 0 1 1 2 3 3 3 4 4 4 4 4 4 4 5 4 3 3 4 5 5 5 5 6 6 6 6 6 6 5 5 5 5
-10 -11 -12 -13 -13 -13 -13 -11 -9 -7 -5 -4 -3 -2 -0 1 2 2 3 3 4 4 4 4 3 2 2 3 4 4 4 5 5 5 5 5 5 5 5 5 6 6

ECMWFNIL_850_dewp_042.txt.gz
Dewpoint
6 7 6 4 2 3 3 1 -1 0 2 4 5 5 5 4 1 -3 -4 -3 0 4 6 6 6 6 5 4 6 8 7 6 7 7 6 6 6 7 8 8 9 9
8 8 7 5 3 3 2 -0 -2 0 2 4 5 5 5 5 2 -5 -7 -4 -0 3 6 6 5 5 4 3 4 7 7 6 6 6 6 6 5 6 8 8 8 8
9 9 8 5 3 3 3 1 -0 1 2 4 5 6 6 5 3 -2 -5 -4 -1 2 4 5 5 5 4 2 2 5 6 6 7 6 6 6 6 6 7 8 8 8
9 9 7 6 5 6 5 2 1 2 3 4 5 5 5 4 2 -2 -5 -2 1 2 3 5 5 5 4 2 3 4 5 6 6 6 6 6 6 7 7 7 7 7
9 9 7 7 8 8 6 3 2 2 3 4 5 5 5 4 1 -5 -8 -2 2 3 4 6 6 5 2 3 5 5 5 6 6 6 7 7 7 7 7 7 7 7
9 8 8 9 9 6 3 1 2 3 3 4 4 4 5 4 -1 -8 -10 -5 -1 1 4 7 7 4 1 2 5 6 6 7 7 7 8 7 7 6 6 6 6 7
9 8 9 9 8 3 -1 -0 2 3 4 5 4 3 3 0 -5 -10 -10 -8 -7 -5 1 6 7 3 -0 2 5 6 7 8 8 8 8 7 6 5 5 5 6 7
8 9 9 9 7 3 0 1 3 4 4 4 2 -0 -2 -5 -10 -13 -12 -10 -11 -13 -6 3 5 1 -2 3 6 7 8 8 8 8 7 6 4 4 3 3 4 6
8 9 9 8 7 5 3 3 4 5 3 2 1 -3 -7 -10 -13 -12 -12 -13 -12 -13 -10 -3 -0 -4 -4 2 5 6 7 7 8 8 7 4 2 2 2 1 2 4
8 8 9 8 7 6 5 5 5 5 3 2 -1 -8 -12 -12 -11 -11 -11 -11 -12 -12 -11 -8 -5 -6 -4 1 4 4 5 5 6 7 7 4 1 2 2 1 1 4
8 8 8 7 7 6 5 6 6 5 3 1 -4 -10 -11 -10 -9 -7 -7 -7 -7 -10 -11 -10 -8 -5 -3 -0 2 3 4 3 3 5 6 4 2 1 2 1 1 2
8 9 8 7 7 6 6 7 7 5 4 1 -6 -9 -6 -6 -5 -3 -3 -1 -1 -4 -8 -10 -10 -5 -3 -1 0 1 1 1 -0 1 4 4 3 2 1 1 1 1
9 9 8 7 7 7 7 7 6 5 5 2 -3 -4 -2 -2 -2 -1 -1 0 1 1 -1 -3 -5 -5 -4 -4 -3 -2 -3 -4 -5 -4 1 3 3 2 1 -0 0 1
9 8 8 7 8 7 7 7 6 5 5 3 0 -0 0 1 1 1 1 0 1 2 2 1 1 -0 -1 -3 -4 -3 -3 -2 -3 -4 -3 1 2 1 0 -0 -0 1
8 8 8 8 8 6 6 7 6 5 5 5 3 2 1 2 3 3 2 1 1 2 2 2 2 2 2 0 -2 -3 -3 -1 0 -2 -4 -1 1 1 2 2 1 1
7 8 8 7 7 6 5 7 7 5 6 5 4 3 2 2 3 3 2 1 1 2 2 2 2 2 2 2 1 -1 -3 -3 -1 -0 -1 1 3 3 3 3 3 3
7 8 7 6 7 7 7 7 7 6 6 5 4 3 3 2 3 4 3 2 1 1 2 2 2 2 2 3 2 2 0 -1 -1 -1 0 1 2 2 2 3 3 3
8 8 8 7 7 7 7 7 7 7 6 5 4 4 4 4 4 5 4 3 2 2 2 2 3 3 3 3 3 3 3 2 1 0 0 -0 -1 -0 -0 1 2 2
8 8 8 8 8 8 8 8 8 7 6 6 5 4 5 5 5 5 5 5 4 4 3 4 4 4 4 4 4 4 3 3 3 2 1 1 1 0 -0 -0 -0 0
8 8 8 8 8 8 8 8 7 7 6 6 5 4 4 5 5 5 5 5 5 5 5 5 4 4 4 4 4 4 4 4 4 3 3 2 2 2 2 2 1 1
7 8 8 8 8 8 8 7 7 7 7 7 7 6 5 5 6 6 6 6 6 5 6 6 5 5 5 5 4 4 4 4 4 4 4 4 3 3 2 2 2 2
4 5 6 6 7 7 8 8 7 7 7 7 7 7 7 7 7 7 6 6 6 6 7 7 7 7 6 6 6 6 6 5 5 5 5 5 4 4 3 3 3 3
-1 1 2 3 4 5 6 7 7 7 7 7 7 7 7 7 7 7 6 7 7 7 7 7 7 7 7 7 7 7 7 7 6 6 6 6 5 5 5 5 5 4
-4 -3 -1 -1 1 2 3 4 4 5 5 6 6 7 7 7 7 6 6 7 7 7 7 7 7 7 7 7 7 7 7 7 7 7 6 6 6 6 6 6 5 6
-3 -3 -3 -3 -2 -2 -2 -2 -1 -0 1 2 3 4 5 5 5 5 5 5 5 5 5 5 5 5 5 5 6 6 6 6 7 7 7 7 6 6 6 6 6 6
-1 -2 -2 -2 -2 -2 -2 -3 -3 -4 -4 -3 -3 -1 0 1 2 2 3 3 3 3 4 4 4 4 4 3 4 4 4 5 5 5 5 5 5 5 5 6 6 6

ECMWFNIL_850_dewp_045.txt.gz
Dewpoint
7 7 5 2 0 0 1 1 3 5 5 4 3 2 1 -1 -4 -1 1 1 3 5 6 6 7 7 6 5 5 7 9 8 9 8 8 8 9 9 9 9 9 10
7 7 4 2 2 3 3 3 4 5 5 5 4 3 2 1 -3 -4 -0 1 3 5 5 6 6 6 5 4 4 7 8 7 7 7 7 7 7 7 8 8 9 9
7 7 5 4 3 3 3 3 4 6 5 5 5 3 3 2 -2 -5 -2 1 3 4 5 5 6 6 4 3 3 6 7 6 6 6 6 6 6 6 7 8 8 9
7 8 6 5 4 3 1 2 4 5 6 6 5 4 3 1 -2 -5 -3 0 2 3 4 5 6 5 3 2 2 4 5 5 5 5 6 6 6 6 7 8 8 8
9 8 7 5 5 4 2 2 3 5 6 6 6 5 4 1 -2 -6 -6 -2 0 1 2 4 5 3 2 2 3 3 4 4 5 6 7 7 7 7 7 7 8 8
9 8 6 6 7 7 4 2 3 5 5 6 7 6 3 0 -3 -7 -8 -5 -3 -2 -0 2 2 0 0 3 5 5 4 5 6 7 7 8 7 7 6 6 7 8
9 8 6 7 8 7 4 2 4 5 5 6 6 4 2 -2 -6 -10 -10 -8 -6 -5 -3 -0 -0 -2 -1 4 6 6 6 6 7 8 8 7 6 5 4 5 6 8
9 8 7 8 8 5 3 3 4 4 4 4 3 1 -1 -6 -11 -13 -13 -11 -9 -9 -6 -1 -1 -4 -1 4 6 6 7 7 8 8 7 6 4 3 2 2 4 7
9 8 7 9 7 2 2 4 5 4 3 2 -0 -3 -7 -11 -13 -13 -13 -12 -12 -11 -7 -4 -4 -6 -3 3 6 6 7 7 8 8 7 5 3 2 1 1 2 6
9 8 8 9 6 2 4 6 6 5 3 1 -2 -7 -11 -11 -11 -12 -12 -12 -12 -10 -7 -6 -7 -9 -6 1 5 5 6 6 7 7 6 4 2 1 1 1 1 5
9 9 9 8 6 4 6 7 6 5 3 -1 -5 -10 -10 -9 -9 -9 -9 -9 -10 -9 -7 -6 -6 -7 -5 -0 3 4 4 5 5 6 6 5 3 2 2 1 1 5
9 9 8 7 7 6 7 7 6 4 1 -3 -7 -7 -6 -6 -5 -5 -5 -5 -6 -8 -9 -7 -6 -4 -2 0 2 3 3 3 3 4 5 5 4 3 2 1 1 3
9 9 8 7 7 7 7 7 6 4 0 -4 -4 -3 -3 -2 -1 -0 -0 0 -1 -2 -4 -5 -4 -3 -2 -1 -0 1 1 1 -1 -1 2 4 4 3 2 1 0 1
9 9 8 8 8 7 7 7 5 4 1 -2 -1 1 1 1 1 1 1 2 2 2 1 1 0 -1 -1 -3 -3 -4 -4 -5 -6 -8 -5 -1 3 4 3 0 -1 0
9 8 8 8 8 7 7 6 5 5 3 -1 -0 1 2 3 3 2 2 2 2 2 2 2 2 2 1 0 -2 -4 -5 -5 -5 -7 -9 -6 -2 1 0 -1 -2 -0
9 8 8 8 7 7 7 6 6 6 5 3 3 3 2 2 3 3 2 2 2 2 2 2 2 2 2 2 1 -1 -3 -3 -2 -2 -4 -5 -3 -1 -1 -1 -0 0
8 8 8 8 8 7 6 6 6 6 5 4 5 4 2 2 3 4 3 2 1 2 2 2 2 2 2 2 2 2 0 -1 -1 0 0 -0 1 2 2 2 2 2
7 8 8 7 7 6 6 5 6 6 6 6 5 4 3 3 3 3 3 3 1 1 1 2 2 2 2 2 2 2 2 1 0 0 1 1 1 2 2 2 2 2
7 8 8 7 7 7 7 7 7 7 7 6 6 5 5 5 5 4 4 4 3 2 2 2 3 3 3 3 3 3 3 2 2 1 1 1 1 0 0 0 1 1
8 8 8 8 8 8 8 8 8 7 7 6 6 6 6 6 6 6 6 6 5 5 5 4 4 4 4 4 4 3 3 3 3 3 2 2 2 1 1 1 1 1
8 8 8 8 8 8 8 8 7 7 7 7 6 6 6 6 6 6 6 6 6 6 6 6 5 5 5 5 5 5 4 4 4 4 4 3 3 3 3 2 2 2
7 7 7 7 8 8 8 7 7 7 7 7 7 7 6 6 6 6 6 6 6 6 6 6 6 6 6 6 6 6 6 6 6 5 5 5 5 5 4 4 4 4
5 6 6 7 7 7 7 7 7 7 7 7 7 7 7 7 7 6 6 6 6 6 7 7 7 7 7 7 7 7 6 6 6 6 6 6 6 6 6 6 5 5
1 1 2 3 5 5 6 6 6 6 6 6 6 7 7 7 7 7 6 6 6 6 7 7 7 7 6 6 6 6 6 6 6 6 6 6 6 6 6 6 6 6
-4 -3 -3 -2 -0 0 -0 0 1 1 2 2 3 3 4 4 4 4 4 4 4 5 5 5 5 5 5 5 5 5 5 5 5 5 5 5 5 6 6 6 6 6
-3 -3 -3 -3 -2 -2 -3 -3 -3 -3 -4 -4 -4 -4 -3 -3 -3 -3 -3 -2 -2 -2 -1 -2 -1 -1 -0 0 0 1 1 1 2 2 2 2 3 3 3 3 4 4

ECMWFNIL_850_dewp_048.txt.gz
Dewpoint
8 7 5 6 6 3 4 8 9 8 9 10 9 8 8 6 4 5 4 3 4 4 4 4 5 5 4 4 6 8 9 10 11 11 10 10 11 11 10 11 10 10
7 6 4 6 4 0 2 6 7 8 9 9 9 9 7 2 2 5 4 3 4 5 4 5 5 4 4 3 4 7 9 10 10 10 9 9 10 10 10 10 11 10
7 6 5 5 2 -1 2 5 7 9 9 8 9 8 4 -4 -1 3 3 5 6 5 4 4 4 4 4 3 5 7 8 8 8 7 8 8 7 8 8 9 10 11
8 7 6 5 3 2 4 5 6 8 8 7 7 6 1 -7 -3 2 5 7 6 5 4 4 4 4 3 2 4 7 8 7 6 5 6 6 5 6 7 8 10 11
9 8 6 5 4 4 6 6 6 6 7 7 6 6 2 -5 -2 3 6 8 7 6 5 5 6 4 2 1 3 5 7 6 5 5 5 6 5 6 6 6 8 10
9 8 6 5 4 5 6 6 6 7 7 6 6 6 4 0 2 5 7 8 8 7 7 7 7 6 4 3 2 3 6 6 4 5 6 7 6 6 7 7 7 9
9 8 6 6 5 5 6 7 7 8 7 6 6 5 3 3 5 6 7 8 7 7 7 8 7 6 5 6 4 4 6 6 5 6 7 8 6 6 7 7 7 9
9 8 6 7 7 5 6 7 7 7 7 7 6 3 2 5 5 4 6 7 6 8 8 7 6 5 6 8 7 6 6 6 7 7 7 6 5 5 5 5 7 9
9 9 7 7 8 6 5 6 6 6 6 7 5 2 2 4 1 0 4 6 5 7 7 6 5 4 5 8 8 7 7 7 7 7 6 5 4 5 5 4 6 9
9 9 7 7 8 7 5 6 6 6 7 7 6 3 1 -1 -3 -1 3 4 5 6 6 5 4 2 4 7 7 7 8 8 7 7 6 5 5 5 4 4 5 8
9 8 7 7 7 6 6 6 6 5 7 7 6 3 -2 -6 -3 1 2 3 5 5 5 5 4 2 3 5 6 7 7 7 7 6 6 5 4 3 3 4 6 7
9 8 7 6 5 5 6 6 6 5 6 6 4 1 -4 -5 -0 2 3 4 4 5 5 4 4 3 3 4 5 6 6 6 7 7 6 5 4 3 2 3 5 7
9 8 7 6 4 5 6 7 6 5 2 0 -1 -2 -2 0 3 3 3 3 3 3 4 3 3 3 3 3 4 5 5 5 6 6 6 5 5 5 3 2 4 7
8 8 7 6 5 6 7 7 6 3 -2 -5 -5 -5 -2 1 3 3 3 3 3 3 3 3 3 3 3 4 4 4 4 4 4 4 6 6 5 5 3 1 3 5
8 7 7 6 6 7 8 7 4 1 -4 -5 -4 -3 -1 2 3 4 4 4 4 3 3 3 3 3 2 2 4 4 4 4 3 3 4 5 6 5 4 2 2 3
9 7 7 7 7 7 7 6 4 -0 -4 -3 -1 -1 0 2 4 5 5 5 4 3 2 2 2 1 0 -0 1 2 4 4 4 3 3 4 5 5 4 3 3 3
9 8 8 8 8 7 7 5 2 -1 -1 -0 0 1 1 1 2 4 4 4 3 2 2 2 2 2 2 1 -0 -1 0 2 4 4 3 4 4 5 4 3 3 3
8 8 8 8 8 7 6 5 2 0 1 2 2 3 3 2 2 2 3 2 2 2 2 2 2 2 2 2 1 0 -2 0 3 4 3 5 5 5 5 5 5 5
8 8 7 7 7 7 6 6 4 3 4 4 4 4 4 4 3 3 3 2 2 2 2 2 2 2 2 2 2 2 0 1 3 4 3 4 5 4 5 5 5 5
8 8 7 7 6 6 6 5 5 5 5 5 6 6 5 5 4 4 4 4 3 2 2 2 2 3 3 3 3 3 3 2 3 2 2 3 3 2 2 2 3 3
8 8 7 6 6 6 6 6 6 6 6 7 7 7 6 6 6 6 5 5 5 4 4 4 4 4 4 4 4 4 4 3 3 3 3 3 2 2 2 2 2 1
8 8 7 7 7 7 7 8 8 7 7 7 7 7 7 6 6 6 6 6 6 6 6 6 5 5 5 5 5 5 5 5 5 5 4 4 4 3 3 3 2 2
7 7 7 7 7 7 7 8 7 7 7 7 6 6 6 6 6 6 6 6 6 6 6 6 6 6 6 6 6 6 6 6 6 6 6 6 5 5 5 4 4 4
6 6 6 7 7 7 7 7 6 6 6 6 6 6 6 6 6 6 6 6 6 6 6 6 7 6 7 6 7 6 6 6 6 6 6 7 6 6 6 6 6 5
3 3 3 3 4 4 4 4 4 4 3 4 4 5 5 5 5 5 5 5 5 5 6 6 6 6 6 5 5 5 4 4 4 5 5 5 5 5 5 6 5 5
-3 -2 -2 -2 -1 -1 -1 -2 -1 -1 -2 -2 -1 -1 -1 -0 -0 -0 -0 -0 0 0 0 0 0 1 0 0 -0 -1 -1 -1 -1 0 0 1 1 1 2 2 2 2